Погода в Павловке

Россия / Пензенская область     53°52′37″N   45°54′00″E
темп.,
°C
ветер,
м/с
пор.,
м/с
влажн.,
%
обл.,
%
осадки,
мм/ч
давл.,
гПа
погр.,
м
24 января, вс
вс2400:00+1юз31198100 0.0 1020441
03:00+1ююз3899100 0.0 1020274
06:00+1ююз3998100 0.1 1020293
09:00+1ю31099100 0.0 1021298
12:00+1ююз410100100 0.1 1022343
15:00+1ю41098100 0.1 1022368
18:00+1ю41196100 0.0 1023369
21:00+1ююз41196100 0.2 1024400
25 января, пн
пн2500:00+1ю41294100 0.2 1024489
03:00+1ююз51293100 0.3 1025545
06:00−1ю41194100 0.1 1025483
09:00−1ю41192100 0.1 1026484
12:00−2ю5118898 0.0 1026462
15:00−3ююв5109497 0.0 1025500
18:00−3ююв51090100 0.0 1024567
21:00−3ю51191100 0.0 1024594
26 января, вт
вт2600:00−2ю31193100 0.1 1023748
03:00−2ю4109098 0.1 1023725
06:00−2ю5109098 0.0 1022606
09:00−3ююв61390100 0.0 1022617
12:00−1ю61484100 0.0 1022727
15:00−1ю61390100 0.0 1019891
18:00−1ю51295100 0.2 1019698
21:000ю41195100 0.4 1018629
27 января, ср
ср2700:000ю31193100 0.1 1019616
03:00−1ююв41093100 0.1 1018442
06:00+1ю51289100 0.0 1018637
09:000ююв61391100 0.0 1017439
12:00+1ююв61491100 0.0 1018520
15:000ююв61388100 0.0 1017523
18:00−2ююв61384100 0.0 1017444
21:00−3ююв51485100 0.0 1017478
28 января, чт
чт2800:00−4ююв51486100 0.0 1016505
03:00−4ююв51489100 0.0 1015473
06:00−4ююв51289100 0.0 1015498
09:00−5ююв61390100 0.0 1013393
12:00−4ююв51187100 0.0 1013437
15:00−4ююв5108998 0.0 1011488
18:00−6ю4992100 0.0 1014406
21:00−6ю3893100 0.1 1013414